Beijing, China

12:37 PM CST on December 15, 2018 (GMT +0800)
Beijing Capital

Weather History for ZBAA - October, 2018

Change the Weather History Date:

Friday, October 12, 2018

  Actual Average Record
Temperature  
Mean Temperature 52 °F -  
Max Temperature 68 °F 60 °F 77 °F (2015)
Min Temperature 35 °F 39 °F 35 °F (2018)
Degree Days  
Heating Degree Days 14    
Growing Degree Days 2 (Base 50)    
Moisture  
Dew Point 36 °F    
Average Humidity 65    
Maximum Humidity 93    
Minimum Humidity 19    
Precipitation  
Precipitation 0.00 in 0.02 in - ()
Sea Level Pressure  
Sea Level Pressure 30.28 in    
Wind  
Wind Speed 3 mph ()    
Max Wind Speed 11 mph    
Max Gust Speed -    
Visibility 6.0 miles    
Events      
Averages and records for this station are not official NWS values.
T = Trace of Precipitation, MM = Missing Value Source: Averaged Metar Reports

Daily Weather History Graph

Daily Weather History Graph

Search for Another Location

Airport or City:

Astronomy

Oct. 12, 2018 Rise Set
Actual Time 6:20 AM CST 5:39 PM CST
Civil Twilight 5:53 AM CST 6:06 PM CST
Nautical Twilight 5:21 AM CST 6:37 PM CST
Astronomical Twilight 4:50 AM CST 7:09 PM CST
Moon 9:19 AM CST (10/12) 7:52 PM CST (10/12)
Length of Visible Light 12h 13m
Length of Day
11h 18m
Waxing Crescent, 11% of the Moon is Illuminated
Oct 12
Waxing Crescent
Oct 17
First Quarter
Oct 25
Full
Nov 1
Last Quarter
Nov 8
New

Hourly Weather History & Observations

Time (CST) Temp. Windchill Dew Point Humidity Pressure Visibility Wind Dir Wind Speed Gust Speed Precip Events Conditions
12:00 AM 39.2 °F - 35.6 °F 87% 30.30 in - East 2.2 mph - N/A   Clear
12:30 AM 39.2 °F 36.0 °F 33.8 °F 81% 30.30 in - NNE 4.5 mph - N/A   Clear
1:00 AM 39.2 °F 36.0 °F 33.8 °F 81% 30.33 in - North 4.5 mph - N/A   Clear
1:30 AM 39.2 °F - 35.6 °F 87% 30.33 in - Calm Calm - N/A   Clear
2:00 AM 37.4 °F - 35.6 °F 93% 30.33 in - NE 2.2 mph - N/A   Clear
2:30 AM 37.4 °F - 35.6 °F 93% 30.33 in - NNE 2.2 mph - N/A   Clear
3:00 AM 37.4 °F - 35.6 °F 93% 30.33 in - Calm Calm - N/A   Clear
3:30 AM 37.4 °F - 35.6 °F 93% 30.33 in - Calm Calm - N/A   Clear
4:00 AM 37.4 °F 33.9 °F 35.6 °F 93% 30.33 in - North 4.5 mph - N/A   Clear
4:30 AM 37.4 °F - 35.6 °F 93% 30.33 in - NE 2.2 mph - N/A   Clear
5:00 AM 41 °F - 34 °F 68% 30.33 in 5 mi ENE 2.2 mph - -  
5:00 AM 37.4 °F - 35.6 °F 93% 30.33 in - Variable 2.2 mph - N/A   Clear
5:30 AM 35.6 °F - 33.8 °F 93% 30.33 in - Variable 2.2 mph - N/A   Clear
6:00 AM 37.4 °F - 35.6 °F 93% 30.33 in - Variable 2.2 mph - N/A   Clear
6:30 AM 37.4 °F - 35.6 °F 93% 30.33 in - Variable 2.2 mph - N/A   Clear
7:00 AM 39.2 °F 36.0 °F 35.6 °F 87% 30.33 in - North 4.5 mph - N/A   Clear
7:30 AM 42.8 °F 40.2 °F 39.2 °F 87% 30.33 in - North 4.5 mph - N/A   Clear
8:00 AM 46 °F - 36 °F 59% 30.34 in 6 mi ENE 2.2 mph - -   Mostly Cloudy
8:00 AM 46.4 °F 44.4 °F 39.2 °F 76% 30.33 in - North 4.5 mph - N/A   Clear
9:00 AM 50.0 °F - 37.4 °F 62% 30.33 in - Variable 2.2 mph - N/A   Clear
9:30 AM 53.6 °F - 37.4 °F 54% 30.33 in - Variable 2.2 mph - N/A   Clear
10:00 AM 55.4 °F - 37.4 °F 51% 30.33 in - Variable 2.2 mph - N/A   Clear
11:00 AM 60 °F - 33 °F 24% 30.32 in 10 mi ENE 2.2 mph - -   Mostly Cloudy
11:00 AM 59.0 °F - 32.0 °F 36% 30.33 in - Variable 2.2 mph - N/A   Clear
11:30 AM 60.8 °F - 32.0 °F 34% 30.30 in - East 4.5 mph - N/A   Clear
12:00 PM 62.6 °F - 32.0 °F 32% 30.30 in - Variable 2.2 mph - N/A   Clear
12:30 PM 64.4 °F - 32.0 °F 30% 30.27 in - SE 4.5 mph - N/A   Clear
1:00 PM 64.4 °F - 32.0 °F 30% 30.27 in - WSW 4.5 mph - N/A   Clear
1:30 PM 66.2 °F - 32.0 °F 28% 30.24 in - Variable 4.5 mph - N/A   Clear
2:00 PM 66.2 °F - 30.2 °F 26% 30.24 in - SSE 6.7 mph - N/A   Clear
2:30 PM 66.2 °F - 30.2 °F 26% 30.24 in - South 6.7 mph - N/A   Clear
3:00 PM 66.2 °F - 28.4 °F 24% 30.21 in - South 8.9 mph - N/A   Clear
3:30 PM 68.0 °F - 30.2 °F 24% 30.21 in - South 6.7 mph - N/A   Clear
4:00 PM 66.2 °F - 28.4 °F 24% 30.21 in - South 11.2 mph - N/A   Clear
4:30 PM 66.2 °F - 30.2 °F 26% 30.21 in - South 8.9 mph - N/A   Clear
5:00 PM 64 °F - 32 °F 19% 30.22 in 5 mi SSW 4.5 mph - -   Mostly Cloudy
5:00 PM 64.4 °F - 30.2 °F 28% 30.21 in - South 6.7 mph - N/A   Clear
5:30 PM 59.0 °F - 33.8 °F 39% 30.21 in - South 6.7 mph - N/A   Clear
6:00 PM 51.8 °F - 39.2 °F 62% 30.21 in - Variable 2.2 mph - N/A   Clear
6:30 PM 50.0 °F - 41.0 °F 71% 30.24 in - Variable 2.2 mph - N/A   Clear
7:00 PM 48.2 °F - 41.0 °F 76% 30.24 in - Variable 2.2 mph - N/A   Clear
7:30 PM 48.2 °F - 42.8 °F 82% 30.24 in - Calm Calm - N/A   Clear
8:00 PM 54 °F - 36 °F 39% 30.25 in 4 mi SSE 2.2 mph - -   Haze
8:00 PM 46.4 °F - 42.8 °F 87% 30.24 in - Variable 2.2 mph - N/A   Clear
8:30 PM 44.6 °F - 42.8 °F 93% 30.24 in - East 2.2 mph - N/A   Clear
9:00 PM 46.4 °F - 42.8 °F 87% 30.24 in - Variable 2.2 mph - N/A   Clear
9:30 PM 46.4 °F - 42.8 °F 87% 30.24 in - Variable 2.2 mph - N/A   Clear
10:00 PM 44.6 °F 42.3 °F 41.0 °F 87% 30.24 in - ENE 4.5 mph - N/A   Clear
10:30 PM 46.4 °F - 41.0 °F 81% 30.27 in - Variable 2.2 mph - N/A   Clear
11:00 PM 44.6 °F - 42.8 °F 93% 30.27 in - Variable 2.2 mph - N/A   Clear
11:30 PM 44.6 °F - 41.0 °F 87% 30.27 in - Variable 2.2 mph - N/A   Clear